0 INTELSAT 1-F1 1 01317U 65028A 25181.98674743 -.00000282 00000-0 00000-0 0 9991 2 01317 6.2999 67.2706 0006438 128.2141 31.5330 1.00271370123650 0 INTELSAT 2-F1 1 02514U 66096A 25182.64770738 -.00000354 00000-0 00000-0 0 9992 2 02514 17.1641 122.5638 6350992 58.4714 348.2187 2.00539307 87786 0 INTELSAT 2-F2 1 02639U 67001A 25182.85520422 .00000076 00000-0 00000-0 0 9993 2 02639 2.3523 80.9385 0005377 186.8402 332.4832 1.00207895115735 0 INTELSAT 2-F3 1 02717U 67026A 25182.85129461 -.00000059 00000-0 00000-0 0 9997 2 02717 3.2130 69.8547 0016630 215.6520 293.6094 1.00275908120383 0 INTELSAT 2-F4 1 02969U 67094A 25182.60484237 .00000107 00000-0 00000-0 0 9992 2 02969 3.1824 77.8034 0011075 127.9496 121.5597 1.00282354111791 0 INTELSAT 3-F2 1 3623U 68116A 25181.88273735 -.00000091 00000-0 00000+0 0 9996 2 3623 4.9155 296.8833 0090753 84.1884 310.8970 0.90194166122881 0 INTELSAT 3-F3 1 03674U 69011A 25182.53730252 -.00000187 00000-0 00000-0 0 9999 2 03674 10.3973 304.9114 0179399 355.4662 22.1638 0.84931562 63724 0 INTELSAT 3-F4 1 3947U 69045A 25182.90935786 -.00000083 00000-0 00000+0 0 9993 2 3947 4.6984 289.2325 0022856 75.3119 336.0387 0.90044494156024 0 INTELSAT 3-F6 1 04297U 70003A 25182.81263927 -.00000264 00000-0 00000-0 0 9991 2 04297 0.1918 121.2897 0009696 231.8135 17.1447 0.99161310173382 0 INTELSAT 3-F7 1 04376U 70032A 25182.44031725 .00000120 00000-0 00000-0 0 9999 2 04376 1.5245 96.2233 0001671 223.8193 135.4696 1.00328170 43842 0 INTELSAT 3-F8 1 04478U 70055A 25182.85242405 .00000027 00000-0 00000-0 0 9997 2 04478 4.5988 73.1604 0315679 105.5293 43.5751 1.02263047119243 0 INTELSAT 4-F2 1 04881U 71006A 25182.89907464 .00000057 00000-0 00000-0 0 9992 2 04881 5.2537 280.6466 0012038 94.5913 304.5694 0.98835017118048 0 INTELSAT 4-F3 1 05709U 71116A 25182.47024069 .00000101 00000-0 00000-0 0 9999 2 05709 7.2426 294.0447 0011209 120.2630 265.7580 0.99618596115385 0 INTELSAT 4-F4 1 05775U 72003A 25182.63739500 -.00000125 00000-0 00000-0 0 9996 2 05775 7.5685 297.3501 0003113 153.3794 52.5688 0.99837966133899 0 INTELSAT 4-F5 1 06052U 72041A 25181.97885470 .00000096 00000-0 00000-0 0 9997 2 06052 6.5937 290.2659 0003140 260.8610 99.2579 1.00119529 43140 0 INTELSAT 4-F7 1 06796U 73058A 25182.37961546 .00000059 00000-0 00000-0 0 9994 2 06796 8.0484 299.6954 0005951 198.9694 164.1450 0.99143098132172 0 INTELSAT 4-F8 1 07544U 74093A 25182.72681666 -.00000348 00000-0 00000-0 0 9999 2 07544 8.7136 307.0492 0004580 192.3333 170.9677 0.99790402121712 0 INTELSAT 4-F1 1 07815U 75042A 25181.46405858 .00000074 00000-0 00000-0 0 9997 2 07815 8.9901 308.5942 0011720 259.6507 100.3071 0.99260238118467 0 INTELSAT 4A-F1 1 08330U 75091A 25182.50453147 .00000139 00000-0 00000-0 0 9996 2 08330 8.6155 306.7927 0005330 232.3599 326.1167 0.99923369117969 0 INTELSAT 4A-F2 1 08620U 76010A 25182.60536366 .00000026 00000-0 00000-0 0 9991 2 08620 8.6504 306.4028 0005314 277.2273 106.5641 0.99692001617123 0 INTELSAT 4A-F4 1 10024U 77041A 25182.86503169 .00000097 00000-0 00000-0 0 9998 2 10024 9.5820 313.4612 0012632 256.8211 82.5043 0.99438954 43495 0 INTELSAT 4A-F3 1 10557U 78002A 25182.63669995 -.00000147 00000-0 00000-0 0 9999 2 10557 9.6557 314.9868 0003166 259.0698 285.3581 0.99918141 45245 0 INTELSAT 4A-F6 1 10778U 78035A 25182.82930214 -.00000079 00000-0 00000-0 0 9990 2 10778 9.4442 314.0328 0006410 292.4780 42.6768 1.00392551118641 0 INTELSAT 502 1 12089U 80098A 25182.90045713 -.00000003 00000-0 00000-0 0 9996 2 12089 11.7800 329.1935 0008458 291.5432 68.7656 0.98888463130255 0 INTELSAT 501 1 12474U 81050A 25182.00757247 .00000042 00000-0 00000-0 0 9998 2 12474 11.4945 326.8891 0003310 228.4753 144.4476 0.98849575134204 0 INTELSAT 503 1 12994U 81119A 25182.70566377 -.00000255 00000-0 00000-0 0 9997 2 12994 11.7419 329.3657 0043481 254.7527 288.4066 0.99469992123217 0 INTELSAT 504 1 13083U 82017A 25182.57177964 -.00000042 00000-0 00000-0 0 9994 2 13083 11.8462 329.8266 0014438 209.0698 329.7787 0.99226405138270 0 INTELSAT 505 1 13595U 82097A 25182.40785943 -.00000053 00000-0 00000-0 0 9996 2 13595 12.5658 333.5988 0015711 50.3185 319.4332 0.98404777124589 0 INTELSAT 506 1 14077U 83047A 25182.56570021 .00000023 00000-0 00000-0 0 9990 2 14077 12.8446 335.9906 0036099 346.5441 14.3994 0.99160573120615 0 INTELSAT 507 1 14421U 83105A 25182.50592156 .00000106 00000-0 00000-0 0 9997 2 14421 12.3918 333.5057 0005582 122.9214 56.2536 0.99690642133734 0 INTELSAT 508 1 14786U 84023A 25182.70496873 -.00000164 00000-0 00000-0 0 9997 2 14786 13.9561 340.1385 0017177 244.9889 283.0551 0.97293074 42555 0 INTELSAT 510 1 15629U 85025A 25182.47632233 -.00000029 00000-0 00000-0 0 9993 2 15629 14.0315 342.8895 0029217 15.0827 354.9704 0.98280141111730 0 INTELSAT 511 1 15873U 85055A 25182.20869399 -.00000119 00000-0 00000-0 0 9993 2 15873 13.4983 341.2905 0014322 100.5860 265.0154 1.00112488121002 0 INTELSAT 512 1 16101U 85087A 25182.60892575 -.00000001 00000-0 00000-0 0 9999 2 16101 14.3175 346.2941 0007851 306.4085 56.7128 0.99115160126851 0 NSS 513 (INTELSAT 513) 1 19121U 88040A 25182.91512111 -.00000100 00000-0 00000-0 0 9995 2 19121 14.8073 351.3628 0014180 110.6481 252.9275 0.98572168111092 0 INTELSAT 515 1 19772U 89006A 25182.85821804 -.00000209 00000-0 00000-0 0 9995 2 19772 14.9388 356.8142 0023754 115.1310 231.4642 0.99102508121148 0 INTELSAT 602 1 20315U 89087A 25182.54685937 -.00000003 00000-0 00000+0 0 9991 2 20315 14.1252 10.0620 0005878 194.7215 169.5009 0.99004561127862 0 INTELSAT 603 1 20523U 90021A 25182.82898294 -.00000095 00000-0 00000-0 0 9997 2 20523 13.7909 11.8418 0005693 75.2589 315.1733 0.99484463121920 0 INTELSAT 604 1 20667U 90056A 25182.82847265 -.00000024 00000-0 00000-0 0 9998 2 20667 14.3802 12.5122 0003466 303.1665 349.0877 0.98432326 43021 0 INTELSAT 605 1 21653U 91055A 25182.68151818 .00000053 00000-0 00000-0 0 9991 2 21653 13.2105 20.0753 0002546 169.0478 192.5856 0.99325171123458 0 INTELSAT 601 1 21765U 91075A 25182.78387273 -.00000054 00000-0 00000-0 0 9996 2 21765 13.0394 19.4397 0000144 125.4360 70.2455 0.99593961122881 0 NSS K (INTELSAT K) 1 21989U 92032A 25182.47884185 -.00000087 00000-0 00000-0 0 9994 2 21989 14.6892 14.8944 0077614 355.5057 355.7392 0.97181044129073 0 INTELSAT 701 1 22871U 93066A 25182.68855550 .00000027 00000-0 00000-0 0 9993 2 22871 10.0927 49.3278 0003681 59.4803 310.8938 0.99317191115628 0 INTELSAT 702 1 23124U 94034A 25182.90626758 -.00000082 00000-0 00000-0 0 9994 2 23124 10.3298 47.8191 0014043 32.3499 266.6517 0.98938182127415 0 INTELSAT 2 (PAS 2) 1 23175U 94040A 25182.74988567 -.00000022 00000-0 00000-0 0 9992 2 23175 11.6161 37.3629 0005146 60.3016 293.2776 0.99194224112165 0 NSS 703 (INTELSAT 703) 1 23305U 94064A 25182.84912260 -.00000244 00000-0 00000-0 0 9997 2 23305 11.0914 39.6013 0004367 257.4091 270.4641 0.99307772112250 0 INTELSAT 704 1 23461U 95001A 25182.85346662 -.00000156 00000-0 00000-0 0 9992 2 23461 11.2412 38.4052 0011231 145.4942 47.1153 0.99183635111006 0 INTELSAT 705 1 23528U 95013A 25182.81515880 -.00000230 00000-0 00000-0 0 9998 2 23528 11.0704 40.5569 0020878 103.1447 240.0171 0.98976559110060 0 INTELSAT 706 1 23571U 95023A 25182.82983962 .00000021 00000-0 00000-0 0 9995 2 23571 10.2385 47.8416 0002500 314.4538 297.4784 0.99049026109857 0 INTELSAT 4 (PAS 4) 1 23636U 95040A 25182.48518413 -.00000120 00000-0 00000-0 0 9994 2 23636 11.2763 43.1975 0024847 222.9956 134.2287 0.97127557107739 0 INTELSAT 3R (PAS 3R) 1 23764U 96002A 25182.85432885 -.00000177 00000-0 00000-0 0 9996 2 23764 11.1197 39.5568 0009429 273.2510 26.2711 0.99087851107312 0 INTELSAT 707 1 23816U 96015A 25182.91284664 -.00000079 00000-0 00000-0 0 9996 2 23816 9.8044 53.4732 0071360 353.0639 307.9116 0.98479820106491 0 INTELSAT 24 (AMOS 1) 1 23865U 96030B 25182.90663689 -.00000081 00000-0 00000-0 0 9997 2 23865 11.9657 36.8798 0009507 173.3865 135.0074 0.97117266105173 0 INTELSAT 709 1 23915U 96035A 25182.75483786 .00000069 00000-0 00000-0 0 9994 2 23915 9.9857 50.7882 0015084 222.8662 144.2709 0.99179170105934 0 INTELSAT 26 (JCSAT 4) 1 24732U 97007A 25182.71577141 -.00000048 00000-0 00000-0 0 9995 2 24732 11.7410 32.0552 0007546 283.4374 251.2759 0.98907512103583 0 INTELSAT 801 1 24742U 97009A 25182.66197194 -.00000244 00000-0 00000-0 0 9996 2 24742 11.6441 35.8505 0010137 11.7901 245.8339 0.98737025103194 0 INTELSAT 802 1 24846U 97031A 25182.55018670 -.00000203 00000-0 00000-0 0 9990 2 24846 10.6838 45.8533 0022458 285.9453 293.4646 0.98110764101492 0 INTELSAT 5 (PAS 5) 1 24916U 97046A 25182.78726106 -.00000019 00000-0 00000-0 0 9994 2 24916 9.6336 52.3303 0002736 157.8276 23.0194 0.99036463102070 0 NSS 5 (INTELSAT 803) 1 24957U 97053A 25182.55398356 -.00000157 00000-0 00000-0 0 9997 2 24957 9.7734 51.0417 0002762 195.0374 166.5521 0.99103742101488 0 INTELSAT 804 1 25110U 97083A 25182.74962503 .00000100 00000-0 00000-0 0 9991 2 25110 12.7922 20.1863 0006822 43.7075 326.1449 1.00197160100823 0 NSS 806 (INTELSAT 806) 1 25239U 98014A 25182.90600360 -.00000240 00000-0 00000-0 0 9992 2 25239 6.2320 73.9552 0004190 75.3299 261.5330 0.99082473 43498 0 INTELSAT 805 1 25371U 98037A 25182.48220079 .00000007 00000-0 00000-0 0 9992 2 25371 7.0114 69.8130 0011839 141.1820 77.4353 0.99478954 98875 0 INTELSAT 7 (PAS 7) 1 25473U 98052A 25182.82115355 -.00000113 00000-0 00000-0 0 9999 2 25473 9.6444 55.3935 0006290 147.9590 213.0909 0.98211961 97199 0 INTELSAT 8 (PAS 8) 1 25522U 98065A 25182.91067971 -.00000148 00000-0 00000-0 0 9996 2 25522 8.2456 67.2681 0281046 296.8631 348.2946 0.95186225 41479 0 INTELSAT 6B (PAS 6B) 1 25585U 98075A 25182.65124562 .00000069 00000-0 00000-0 0 9998 2 25585 11.7779 33.4274 0017702 154.8203 29.8953 0.99150547 96519 0 INTELSAT 9 (PAS 9) 1 26451U 00043A 25182.35235719 -.00000172 00000-0 00000-0 0 9999 2 26451 9.6190 52.3750 0002035 128.3810 221.9622 0.99411037 40619 0 INTELSAT 12 (PAS 12) 1 26590U 00068A 25182.66143493 -.00000279 00000-0 00000-0 0 9999 2 26590 7.4656 68.3555 0009748 192.5283 35.8229 0.99031343 48027 0 INTELSAT 1R (PAS 1R) 1 26608U 00072A 25182.85416166 -.00000140 00000-0 00000-0 0 9992 2 26608 7.2028 68.6382 0004835 296.6938 229.5796 0.98971756 37764 0 INTELSAT 10 (PAS 10) 1 26766U 01019A 25182.15205950 -.00000011 00000-0 00000+0 0 9995 2 26766 8.2329 62.8372 0003072 21.2193 316.2375 1.00273619 88407 0 INTELSAT 901 1 26824U 01024A 25182.75205769 .00000001 00000-0 00000-0 0 9999 2 26824 0.3385 91.4204 0005425 26.3219 285.3909 0.98819508 19455 0 INTELSAT 902 1 26900U 01039A 25180.09766951 -.00000290 00000-0 00000-0 0 9991 2 26900 5.2233 76.1198 0004234 23.9096 162.4780 1.00270479 87157 0 INTELSAT 904 1 27380U 02007A 25182.49039696 -.00000203 00000-0 00000-0 0 9999 2 27380 6.0409 73.4042 0002169 27.0640 328.3421 1.00273094 48245 0 INTELSAT 903 1 27403U 02016A 25182.82919479 .00000068 00000-0 00000-0 0 9996 2 27403 6.8337 70.6374 0002738 104.6556 114.3053 0.99017764 41925 0 INTELSAT 905 1 27438U 02027A 25182.75422970 .00000096 00000-0 00000-0 0 9994 2 27438 5.8705 74.0375 0002489 21.7273 318.5635 1.00271641 47848 0 INTELSAT 906 1 27513U 02041A 25182.86546609 .00000016 00000-0 00000-0 0 9994 2 27513 4.9103 77.2692 0003829 15.7385 202.8489 1.00271829 83511 0 INTELSAT 907 1 27683U 03007A 25182.86346785 .00000095 00000-0 00000-0 0 9995 2 27683 4.8399 76.7378 0008547 60.7102 147.7617 0.99156968 81712 0 INTELSAT 1002 1 28358U 04022A 25182.85259781 -.00000006 00000-0 00000-0 0 9994 2 28358 0.0119 312.7515 0000552 173.6102 99.7322 1.00272490 77118 0 INTELSAT 11 (PAS 11) 1 32253U 07044B 25182.75501162 .00000073 00000-0 00000-0 0 9995 2 32253 2.6515 83.0524 0004003 75.2982 260.3218 0.99048498 64977 0 INTELSAT 25(PROTOSTAR 1) 1 33153U 08034A 25182.84635683 -.00000220 00000-0 00000-0 0 9996 2 33153 1.8040 84.7437 0003215 27.0333 81.5610 1.00272116 62180 0 INTELSAT 14 1 36097U 09064A 25182.84383730 -.00000269 00000-0 00000-0 0 9996 2 36097 0.0142 326.1328 0002560 145.2726 67.5117 1.00271001 57099 0 INTELSAT 15 1 36106U 09067A 25182.90048791 -.00000180 00000-0 00000-0 0 9994 2 36106 0.0183 33.9722 0002179 70.7691 224.7609 1.00271336 37716 0 INTELSAT 16 1 36397U 10006A 25182.83766880 -.00000240 00000-0 00000-0 0 9996 2 36397 0.0104 337.5305 0002067 133.7730 34.1774 1.00272611 56142 0 INTELSAT 17 1 37238U 10065B 25182.86590049 .00000003 00000-0 00000-0 0 9997 2 37238 0.0017 16.4667 0002557 94.8173 186.5884 1.00271818 49735 0 INTELSAT NEW DAWN 1 37392U 11016A 25182.84635683 -.00000220 00000-0 00000-0 0 9999 2 37392 0.9000 87.3158 0004242 5.5427 100.2560 1.00273340 49773 0 INTELSAT 18 1 37834U 11056A 25182.82471891 .00000057 00000-0 00000-0 0 9998 2 37834 0.0207 72.9497 0001804 19.1849 304.8658 1.00271935 50297 0 INTELSAT 22 1 38098U 12011A 25182.83217549 -.00000054 00000-0 00000-0 0 9990 2 38098 0.0143 44.8030 0001724 56.6219 190.3776 1.00271309 3672 0 INTELSAT 19 1 38356U 12030A 25182.90600360 -.00000052 00000-0 00000-0 0 9991 2 38356 0.0125 41.7261 0003020 64.1127 306.5127 1.00272290 46931 0 INTELSAT 20 1 38740U 12043A 25182.86633490 -.00000020 00000-0 00000-0 0 9992 2 38740 0.0084 50.2701 0000969 139.4097 110.8497 1.00271084 47237 0 INTELSAT 21 1 38749U 12045A 25182.76986433 -.00000280 00000-0 00000-0 0 9998 2 38749 0.0419 269.0571 0001102 254.6673 335.4652 1.00267282 47012 0 INTELSAT 23 1 38867U 12057A 25182.77090690 -.00000280 00000-0 00000-0 0 9994 2 38867 0.0452 105.0809 0000820 306.9067 92.5972 1.00280464 46446 0 INTELSAT 30 1 40271U 14062A 25182.87614241 -.00000146 00000-0 00000-0 0 9990 2 40271 0.0135 34.6307 0001429 355.9863 109.8914 1.00271128 3279 0 INTELSAT 34 1 40874U 15039A 25182.77038561 -.00000281 00000-0 00000-0 0 9998 2 40874 0.0192 349.4114 0001498 1.3527 151.1387 1.00270837 36118 0 INTELSAT 29E 1 41308U 16004A 25182.62265287 -.00000257 00000-0 00000-0 0 9998 2 41308 5.6191 74.5793 0004579 39.3104 309.6930 1.00628831 34747 0 INTELSAT 31 1 41581U 16035A 25182.54842322 -.00000146 00000-0 00000-0 0 9994 2 41581 0.0183 274.2946 0001637 341.7021 126.2067 1.00264673 33168 0 INTELSAT 36 1 41747U 16053A 25182.86633490 -.00000020 00000-0 00000-0 0 9998 2 41747 0.0117 24.9704 0001904 313.2431 322.3126 1.00271339 32438 0 INTELSAT 33E 1 41748U 16053B 25182.87858503 -.00000332 00000-0 00000-0 0 9990 2 41748 0.6682 90.4283 0022251 178.6828 97.1329 1.00286707 32733 0 INTELSAT 32E 1 41945U 17007B 25182.77281826 -.00000264 00000-0 00000-0 0 9990 2 41945 0.0198 72.8119 0000326 303.7625 138.5195 1.00271953 30719 0 INTELSAT 35E 1 42818U 17041A 25182.84592243 -.00000233 00000-0 00000-0 0 9990 2 42818 0.0290 274.3831 0001871 177.2971 98.4774 1.00270065 29309 0 INTELSAT 37E 1 42950U 17059A 25182.84920948 -.00000136 00000-0 00000-0 0 9995 2 42950 0.0134 67.6871 0002761 57.7153 82.4370 1.00271151 28551 0 AZERSPACE 2/INTELSAT 38 1 43632U 18074A 25182.71898598 .00000140 00000-0 00000-0 0 9996 2 43632 0.0216 28.0401 0001552 73.7381 122.1739 1.00270499 24931 0 INTELSAT 39 1 44476U 19049B 25182.86503169 .00000038 00000-0 00000-0 0 9995 2 44476 0.0162 13.0371 0001185 320.4958 319.9669 1.00270967 21612 0 INTELSAT 40E 1 56174U 23052A 25182.87614241 -.00000169 00000-0 00000-0 0 9993 2 56174 0.0182 48.5153 0002134 81.4387 14.6088 1.00268054 8318